Estación meteorológica de Calldetenes (Osona, Plana de Vic)

Consulta los datos en tiempo real de la estación meteorológica de Calldetenes





Hora UTC 04:40
Temperatura 15.1 ºC
Suelo 15 cm 15.0 ºC
Humedad 92.6 %
Presión 1023.6 hPa
Pluja 0.0 mm
Velocidad viento 2.5 km/h
Dirección viento S
Radiación solar 0.1 W/m²

Webcam

Datos diarios 2026-09-03



Hora UTC (invierno +1h; verano +2h)
Temperatura (ºC) Humedad (%) Presión (hPa) Velocidad viento (km/h) Precipitación (mm) Radiación solar (W/m²)
Hora UTC Aire Suelo 15 cm Humedad Presión Vel. Dir. Vel. Max Dir. Intent. máx 5 min. Rad. Sol.
00:05 17.4 17.4 85.2 1024.0 3.5 SE 3.5 SE 0.0 0.1
00:10 17.2 17.3 85.5 1024.0 0.8 ESE 3.9 ESE 0.0 0.1
00:15 17.3 17.2 86.0 1024.1 4.4 ESE 6.7 ESE 0.0 0.1
00:20 17.2 17.2 85.8 1024.1 3.3 SE 6.0 ESE 0.0 0.1
00:25 17.2 17.1 86.0 1024.1 0.7 SSE 3.2 SSE 0.0 0.1
00:30 17.1 17.1 86.8 1024.1 0.1 SSE 1.4 SSE 0.0 0.1
00:35 17.1 17.1 87.2 1024.1 1.5 ESE 3.2 E 0.0 0.1
00:40 17.2 17.1 87.4 1024.1 5.3 ESE 7.4 ESE 0.0 0.1
00:45 17.2 17.2 86.8 1024.1 5.7 E 7.1 ESE 0.0 0.1
00:50 17.2 17.2 87.1 1024.1 4.5 E 6.0 E 0.0 0.1
00:55 17.3 17.3 86.6 1024.1 3.4 E 4.2 ENE 0.0 0.1
01:00 17.2 17.3 86.7 1024.1 1.4 ESE 3.5 E 0.0 0.1
01:05 17.3 17.3 87.4 1024.0 3.3 SE 4.9 SE 0.0 0.1
01:10 17.7 17.4 86.0 1024.0 4.1 SE 6.0 ESE 0.0 0.1
01:15 17.4 17.3 85.1 1024.0 3.2 SE 6.0 ESE 0.0 0.1
01:20 17.2 17.1 85.7 1024.0 3.8 SE 5.3 ESE 0.0 0.1
01:25 16.9 17.0 86.2 1024.0 2.8 SSE 5.3 ESE 0.0 0.1
01:30 17.1 16.8 87.8 1024.0 2.0 S 4.2 SSW 0.0 0.1
01:35 17.1 16.8 87.9 1024.0 3.5 SW 5.6 SW 0.0 0.1
01:40 17.4 16.9 87.3 1024.0 3.0 SSW 4.9 SSW 0.0 0.1
01:45 17.8 17.1 85.4 1024.0 3.5 S 4.6 SSW 0.0 0.1
01:50 17.9 17.4 82.8 1024.0 1.1 S 3.2 SSE 0.0 0.1
01:55 17.5 17.4 84.2 1024.0 1.1 SSE 2.5 SSE 0.0 0.1
02:00 17.4 17.3 85.2 1024.0 2.0 SSE 3.5 S 0.0 0.1
02:05 17.3 17.1 85.7 1024.0 1.9 SSE 3.2 S 0.0 0.1
02:10 17.2 17.0 86.3 1024.0 3.0 ESE 4.6 ESE 0.0 0.1
02:15 16.8 16.8 87.0 1024.0 3.2 ESE 6.0 ESE 0.0 0.1
02:20 16.8 16.6 87.9 1024.0 4.2 ESE 6.0 ESE 0.0 0.1
02:25 16.5 16.5 86.5 1024.0 2.5 ESE 4.2 ESE 0.0 0.1
02:30 16.4 16.4 88.4 1024.0 3.5 E 4.6 E 0.0 0.1
02:35 16.4 16.3 88.7 1024.0 2.6 E 3.9 E 0.0 0.1
02:40 16.3 16.2 88.5 1024.0 2.1 ESE 3.5 ESE 0.0 0.1
02:45 16.1 16.1 88.7 1024.0 1.8 SE 4.9 S 0.0 0.1
02:50 16.6 16.0 89.5 1024.0 1.6 SSE 5.3 S 0.0 0.1
02:55 16.5 16.2 88.1 1024.0 1.2 SE 2.8 SE 0.0 0.1
03:00 16.3 16.1 89.1 1024.0 1.7 ESE 2.5 SE 0.0 0.1
03:05 16.2 16.1 90.2 1024.0 2.0 SE 3.2 SE 0.0 0.1
03:10 16.2 16.0 90.1 1024.0 1.6 ESE 5.3 E 0.0 0.1
03:15 16.0 15.9 89.8 1024.0 5.3 E 6.7 E 0.0 0.1
03:20 16.0 15.9 90.5 1024.0 4.3 ESE 5.3 E 0.0 0.1
03:25 16.0 16.0 89.8 1023.9 3.7 ESE 5.3 ESE 0.0 0.1
03:30 15.9 15.9 89.6 1023.9 1.6 SE 4.6 SE 0.0 0.1
03:35 15.7 15.8 90.3 1023.9 1.0 ESE 2.8 ESE 0.0 0.1
03:40 15.8 15.6 91.1 1023.9 1.4 S 2.1 S 0.0 0.1
03:45 15.6 15.5 90.5 1023.8 0.2 E 1.4 E 0.0 0.1
03:50 15.7 15.5 92.4 1023.8 1.1 SSE 2.5 SSE 0.0 0.1
03:55 15.6 15.5 91.5 1023.7 0.1 ENE 1.4 E 0.0 0.1
04:00 15.6 15.4 91.7 1023.7 0.7 ESE 2.8 ESE 0.0 0.1
04:05 15.3 15.4 91.1 1023.7 1.6 E 2.5 E 0.0 0.1
04:10 15.2 15.2 91.5 1023.7 1.3 ESE 2.8 ESE 0.0 0.1
04:15 15.2 15.2 92.2 1023.7 1.3 ESE 3.2 ESE 0.0 0.1
04:20 15.2 15.1 92.1 1023.7 2.1 ESE 3.9 ESE 0.0 0.1
04:25 15.2 15.1 92.3 1023.6 2.1 SE 3.5 SE 0.0 0.1
04:30 15.1 15.1 92.1 1023.6 1.8 ESE 4.2 ESE 0.0 0.1
04:35 15.1 15.0 93.1 1023.6 2.7 ESE 4.2 ESE 0.0 0.1
04:40 15.1 15.0 92.6 1023.6 2.5 S 3.5 S 0.0 0.1
Máxima 17.9 17.4 93.1 1024.1 5.7 E 7.4 ESE 0.0 0.1
Mínima 15.1 15.0 82.8 1023.6
Total 0.0